Regional Weather Roundup
Issued by NWS

Home | Current Version | Previous Version | Text Only | Print | Product List | Glossary On
Versions: 1 2 3 4 5 6 7 8 9 10 11 12 13 14 15 16 17 18 19 20 21 22 23 24 25 26 27 28 29 30 31 32 33 34 35 36 37 38 39 40 41 42 43 44 45 46 47 48 49 50
000
ASUS43 KDTX 280401
RWRMI
MICHIGAN HOURLY REGIONAL WEATHER ROUNDUP
NATIONAL WEATHER SERVICE DETROIT/PONTIAC MI
1200 AM EDT WED JUN 28 2017

NOTE: "FAIR" INDICATES FEW OR NO CLOUDS BELOW 12,000 FEET WITH NO
SIGNIFICANT WEATHER AND/OR OBSTRUCTION TO VISIBILITY.

MIZ047>049-052>055-059>063-066>070-074>076-081>083-280500-
SOUTHEAST LOWER MICHIGAN

CITY           SKY/WX    TMP DP  RH WIND       PRES   REMARKS
ADRIAN         CLEAR     55  47  74 CALM      30.09R
ALMA           CLEAR     55  51  87 SW3       30.06S
ANN ARBOR      CLEAR     49  47  93 CALM      30.07R
CARO           CLEAR     54  54 100 CALM      30.03S
DETROIT CITY   CLEAR     64  47  53 W5        30.06R
DETROIT        PTCLDY    62  46  55 W5        30.07S
FLINT          CLEAR     57  47  69 W6        30.06R
GROSSE ILE     CLEAR     62  49  62 CALM      30.06R
HILLSDALE      CLEAR     50  45  81 CALM      30.09R
HOWELL         CLEAR     58  45  62 SW5       30.07R

CITY           SKY/WX    TMP DP  RH WIND       PRES   REMARKS
LAMBERTVILLE   CLEAR     56  49  79 CALM      30.08R
LANSING        CLEAR     58  46  64 CALM      30.07R
LAPEER         FAIR      57  51  81 SW3       30.06R
MASON          CLEAR     56  48  75 S3        30.08R
MT. CLEMENS    CLEAR     58  53  83 SW3       30.04R
PONTIAC        CLEAR     60  48  64 W3        30.05S
PORT HOPE        N/A     58  52  80 SW5       30.01R
TRI CITIES     CLEAR     59  52  77 SW6       30.05R
MIDLAND        FAIR      53  51  90 CALM      30.04R
TROY           CLEAR     63  45  51 SW3       30.08R
SAGINAW HB     CLEAR     59  48  67 SW6       30.04R
$$
MIZ043>046-050>051-056>058-064>065-071>073-077>080-280500-
SOUTHWEST LOWER MICHIGAN

CITY           SKY/WX    TMP DP  RH WIND       PRES   REMARKS
BATTLE CREEK   CLEAR     57  47  69 S3        30.08S
BENTON HARBOR  CLEAR     57  46  66 SE5       30.06R
BIG RAPIDS     CLEAR     55  49  81 CALM      30.04S
COLDWATER      CLEAR     53  47  82 CALM      30.09R
FREMONT        FAIR      54  49  85 CALM      30.04S
HOLLAND        CLEAR     58  49  72 S3        30.06R
GRAND RAPIDS   CLEAR     56  51  84 S7        30.06R
KALAMAZOO      CLEAR     56  46  69 S3        30.08R
LUDINGTON      PTCLDY    59  53  80 S3        30.01S
MARSHALL       CLEAR     55  48  80 CALM      30.08R
MOUNT PLEASANT CLEAR     59  49  70 CALM      30.04R
MUSKEGON       CLEAR     60  53  77 S6        30.04S
SOUTH HAVEN    CLEAR     57  51  79 CALM      30.06S
$$
MIZ016>042-280500-
NORTHERN LOWER MICHIGAN

CITY           SKY/WX    TMP DP  RH WIND       PRES   REMARKS
ALPENA         CLEAR     53  51  93 SW3       30.01R
BELLAIRE       CLEAR     51  49  95 CALM      30.00S
CADILLAC       CLEAR     55  50  86 SW5       30.03S
CHARLEVOIX     CLEAR     55  50  83 SE3       30.01S
GAYLORD        CLEAR     54  45  71 CALM      30.01S
GRAYLING       CLEAR     47  46  94 CALM      30.03R
HARBOR SPRINGS CLEAR     53  52  97 CALM      29.99S
HOUGHTON LAKE  CLEAR     52  49  89 CALM      30.03S
MANISTEE       CLEAR     56  50  80 CALM      30.01R
OSCODA         CLEAR     51  48  90 SW6       30.01R
PELLSTON       CLEAR     51  47  86 CALM      29.99S
ROGERS CITY    CLEAR     55  47  73 SW6       30.00S
TRAVERSE CITY  CLEAR     57  51  80 CALM      29.99R
$$
MIZ007>008-015-280500-
EASTERN UPPER MICHIGAN

CITY           SKY/WX    TMP DP  RH WIND       PRES   REMARKS
KINROSS        CLEAR     55  52  89 S5        29.97S
NEWBERRY       CLEAR     54  51  89 S9        29.95R
S. S. MARIE    CLEAR     55  48  77 SW3       29.96S
MUNISING         N/A     60  52  74 SW7       29.91S
$$
MIZ004>006-011>014-085-280500-
CENTRAL UPPER MICHIGAN

CITY           SKY/WX    TMP DP  RH WIND       PRES   REMARKS
MANISTIQUE     CLEAR     55  52  89 S5        29.95S
ESCANABA       PTCLDY    62  57  83 SW5       29.93R
MENOMINEE      CLEAR     63  50  62 SW6       29.96R
$$
MIZ001>003-009>011-084-280500-
WESTERN UPPER MICHIGAN

CITY           SKY/WX    TMP DP  RH WIND       PRES   REMARKS
IRON MOUNTAIN  PTCLDY    64  45  49 SW7       29.93R
HOUGHTON       PTCLDY    54  48  80 W3        29.86F
COPPER HARBOR    N/A     59  46  62 SW7       29.85S
IRONWOOD       CLOUDY    63  48  58 S7        29.90S
$$

ABBREVIATIONS USED IN REMARKS
   TC - TEMPERATURE IN CELSIUS
  WCI - WIND CHILL INDEX
   HX - HEAT INDEX
  VSB - VISIBILITY




USA.gov is the U.S. government's official web portal to all federal, state and local government web resources and services.